Main page
METAR-TAF:

METAR-TAF

Airports :

Dharamsala, India

Gaggal Airport

latitude: 32-09-54N, longitude: 76-15-48E, elevation: 770 m

Current weather observation

The report was made 3 hours and 4 minutes ago, at 11:00 UTC
Wind 3 kt from the South/Southwest
Temperature 28°C
Humidity 48%
Pressure 1009 hPa
Visibility: 8000 m
Few clouds at a height of 4000 ft

METAR: VIGG 211100Z 21003KT 8000 FEW040 28/16 Q1009

Time: 19:34 (14:04 UTC)


TAF: missing

Weather observations and forecasts of more than 4000 airports (METAR and TAF reports).

The available stations are represented by yellow and red dots on the map.

Hover mouse over dot to see the name of the station.

Then click to see weather observations and forecasts.

To change the map : click on the green buttons with a black cross to zoom in, on the green button with a dash to zoom out, or on the green arrows for adjacent maps.


METAR-TAF: